GW0058 Weather Reports


Display with metric or nautical units.
time (UTC)temp
F
wind
direction
speed
MPH
gust
MPH
rain 1hr
in
rain 24hr
in
rain mn
in
humidity
%
barometer
mb
20260505080052 69 185 5.0 14.0 0.00 0.00 0.00 90 1009.4
20260505075547 69 143 4.0 14.0 0.00 0.00 0.00 90 1009.2
20260505075047 69 213 6.0 14.0 0.00 0.00 0.00 90 1009.4
20260505074553 69 144 5.0 11.0 0.00 0.00 0.00 89 1009.5
20260505074047 69 189 6.0 12.0 0.00 0.00 0.00 89 1009.4
20260505073547 69 169 5.0 12.0 0.00 0.00 0.00 89 1009.5
20260505073057 69 188 6.0 15.0 0.00 0.00 0.00 89 1009.6
20260505072547 69 154 5.0 16.0 0.00 0.00 0.00 89 1009.7
20260505072046 69 199 6.0 16.0 0.00 0.00 0.00 89 1009.8
20260505071558 69 146 4.0 14.0 0.00 0.00 0.00 88 1009.8
20260505071047 69 187 4.0 12.0 0.00 0.00 0.00 88 1009.8
20260505070547 69 179 5.0 10.0 0.00 0.00 0.00 88 1009.8
20260505070101 69 236 5.0 12.0 0.00 0.00 0.00 88 1009.9
20260505065547 69 138 6.0 12.0 0.00 0.00 0.00 88 1010.0
20260505065046 69 196 5.0 11.0 0.00 0.00 0.00 88 1010.0
20260505064556 69 169 5.0 11.0 0.00 0.00 0.00 88 1010.3
20260505064046 69 161 5.0 11.0 0.00 0.00 0.00 88 1010.3
20260505063548 69 192 7.0 11.0 0.00 0.00 0.00 88 1010.4
20260505063051 69 171 3.0 12.0 0.00 0.00 0.00 88 1010.3
20260505062547 69 176 6.0 13.0 0.00 0.00 0.00 88 1010.3
20260505062047 69 169 6.0 13.0 0.00 0.00 0.00 88 1010.4
20260505061612 69 176 5.0 11.0 0.00 0.00 0.00 88 1010.5
20260505061046 69 198 5.0 11.0 0.00 0.00 0.00 88 1010.6
20260505060547 69 146 6.0 11.0 0.00 0.00 0.00 88 1010.6
20260505060059 69 202 5.0 11.0 0.00 0.00 0.00 88 1010.6
20260505055551 69 219 5.0 11.0 0.00 0.00 0.00 87 1010.6
20260505055047 69 173 4.0 11.0 0.00 0.00 0.00 87 1010.7
20260505054556 69 215 5.0 12.0 0.00 0.00 0.00 87 1010.6
20260505054049 69 196 6.0 12.0 0.00 0.00 0.00 87 1010.7
20260505053546 69 205 5.0 11.0 0.00 0.00 0.00 87 1010.7
20260505053057 69 169 5.0 11.0 0.00 0.00 0.00 87 1010.6
20260505052550 69 173 4.0 11.0 0.00 0.00 0.00 87 1010.8
20260505052050 69 180 5.0 10.0 0.00 0.00 0.00 87 1010.7
20260505051552 69 202 4.0 10.0 0.00 0.00 0.00 87 1010.6
20260505051051 69 153 4.0 9.0 0.00 0.00 0.00 87 1010.5
20260505050549 69 202 4.0 9.0 0.00 0.00 0.00 87 1010.4
20260505041556 70 192 5.0 10.0 0.00 0.00 0.00 86 1010.4
20260505041051 70 178 3.0 9.0 0.00 0.00 0.00 86 1010.4
20260505040550 70 171 4.0 9.0 0.00 0.00 0.00 85 1010.4
20260505040101 70 151 3.0 9.0 0.00 0.00 0.00 85 1010.4
20260505035551 70 150 3.0 9.0 0.00 0.00 0.00 84 1010.4
20260505035052 71 142 3.0 9.0 0.00 0.00 0.00 84 1010.3
20260505034554 71 161 5.0 9.0 0.00 0.00 0.00 83 1010.3
20260505034048 71 160 4.0 9.0 0.00 0.00 0.00 83 1010.4
20260505033550 71 146 4.0 10.0 0.00 0.00 0.00 83 1010.4
20260505033100 71 161 4.0 11.0 0.00 0.00 0.00 83 1010.6
20260505032552 71 180 4.0 11.0 0.00 0.00 0.00 83 1010.5
20260505032051 71 178 3.0 10.0 0.00 0.00 0.00 82 1010.4
20260505031556 71 161 4.0 10.0 0.00 0.00 0.00 82 1010.3
20260505031050 71 188 5.0 10.0 0.00 0.00 0.00 82 1010.3
20260505030553 71 173 4.0 9.0 0.00 0.00 0.00 82 1010.4
20260505030057 71 168 4.0 9.0 0.00 0.00 0.00 82 1010.6
20260505025551 72 142 3.0 9.0 0.00 0.00 0.00 81 1010.6
20260505025051 72 173 4.0 9.0 0.00 0.00 0.00 81 1010.6
20260505024553 72 160 3.0 7.0 0.00 0.00 0.00 81 1010.6
20260505024050 72 181 3.0 7.0 0.00 0.00 0.00 81 1010.5
20260505023550 72 169 3.0 9.0 0.00 0.00 0.00 80 1010.4
20260505023052 72 174 3.0 9.0 0.00 0.00 0.00 80 1010.4
20260505022549 72 171 3.0 8.0 0.00 0.00 0.00 80 1010.4
20260505022050 72 167 4.0 10.0 0.00 0.00 0.00 80 1010.4
20260505021553 73 171 4.0 10.0 0.00 0.00 0.00 79 1010.3
20260505021049 72 176 3.0 8.0 0.00 0.00 0.00 79 1010.2
20260505020547 73 184 3.0 10.0 0.00 0.00 0.00 79 1010.2
20260505020052 73 165 4.0 10.0 0.00 0.00 0.00 78 1010.2
20260505015547 73 164 4.0 9.0 0.00 0.00 0.00 78 1010.0
20260505015051 73 181 3.0 9.0 0.00 0.00 0.00 77 1010.0
20260505014550 73 200 4.0 9.0 0.00 0.00 0.00 77 1010.0
20260505014050 73 153 4.0 11.0 0.00 0.00 0.00 76 1009.9
20260505013550 74 171 5.0 11.0 0.00 0.00 0.00 76 1009.9
20260505013052 74 148 3.0 8.0 0.00 0.00 0.00 75 1009.9
20260505012553 74 178 4.0 7.0 0.00 0.00 0.00 74 1010.0
20260505012050 74 184 3.0 8.0 0.00 0.00 0.00 74 1009.9
20260505011557 74 146 4.0 9.0 0.00 0.00 0.00 73 1010.0
20260505011051 75 155 4.0 9.0 0.00 0.00 0.00 72 1009.8
20260505010550 75 148 4.0 9.0 0.00 0.00 0.00 72 1009.9
20260505010100 75 126 4.0 9.0 0.00 0.00 0.00 71 1009.9
20260505005548 75 198 4.0 9.0 0.00 0.00 0.00 70 1009.9
20260505005050 76 194 4.0 8.0 0.00 0.00 0.00 69 1009.8
20260505004553 76 172 3.0 8.0 0.00 0.00 0.00 67 1009.8
20260505004053 76 175 3.0 10.0 0.00 0.00 0.00 66 1009.9
20260505003550 77 223 4.0 10.0 0.00 0.00 0.00 66 1009.9
20260505003057 77 171 5.0 10.0 0.00 0.00 0.00 65 1009.7
20260505002550 77 163 4.0 10.0 0.00 0.00 0.00 65 1009.8
20260505002050 77 200 4.0 9.0 0.00 0.00 0.00 65 1009.8
20260505001559 77 134 4.0 12.0 0.00 0.00 0.00 64 1009.8
20260505001050 77 227 5.0 12.0 0.00 0.00 0.00 64 1010.0
20260505000550 77 165 6.0 11.0 0.00 0.00 0.00 63 1009.8
20260505000106 78 183 6.0 17.0 0.00 0.00 0.00 63 1009.8
20260504235547 78 205 7.0 17.0 0.00 0.00 0.00 63 1009.9
20260504235050 78 190 6.0 14.0 0.00 0.00 0.00 64 1009.9
20260504234604 78 172 5.0 14.0 0.00 0.00 0.00 64 1009.9
20260504234050 77 165 6.0 13.0 0.00 0.00 0.00 64 1010.0
20260504233547 78 159 6.0 15.0 0.00 0.00 0.00 63 1010.2
20260504233048 78 196 7.0 15.0 0.00 0.00 0.00 62 1010.2
20260504232547 79 171 6.0 14.0 0.00 0.00 0.00 61 1010.4
20260504232047 79 196 5.0 18.0 0.00 0.00 0.00 62 1010.5
20260504231550 79 197 6.0 18.0 0.00 0.00 0.00 62 1010.5
20260504231047 78 215 6.0 13.0 0.00 0.00 0.00 62 1010.4
20260504230547 78 161 5.0 12.0 0.00 0.00 0.00 62 1010.3
20260504230052 79 107 5.0 11.0 0.00 0.00 0.00 62 1010.6
20260504225547 79 173 5.0 16.0 0.00 0.00 0.00 61 1010.7
20260504225050 79 257 6.0 16.0 0.00 0.00 0.00 61 1010.9
20260504224550 79 180 6.0 11.0 0.00 0.00 0.00 62 1010.8
20260504224047 79 163 5.0 11.0 0.00 0.00 0.00 62 1010.8
20260504223547 78 199 6.0 17.0 0.00 0.00 0.00 62 1010.8
20260504223052 78 169 7.0 17.0 0.00 0.00 0.00 61 1011.1
20260504222547 79 180 6.0 17.0 0.00 0.00 0.00 60 1011.0
20260504222051 80 194 6.0 12.0 0.00 0.00 0.00 60 1011.0
20260504221551 80 223 6.0 12.0 0.00 0.00 0.00 62 1011.1
20260504221047 80 201 4.0 11.0 0.00 0.00 0.00 62 1011.1
20260504220547 80 170 5.0 15.0 0.00 0.00 0.00 61 1011.1
20260504220100 80 189 6.0 15.0 0.00 0.00 0.00 63 1011.0
20260504215547 79 203 7.0 15.0 0.00 0.00 0.00 61 1011.1
20260504215049 79 216 5.0 14.0 0.00 0.00 0.00 63 1011.1
20260504214551 79 160 6.0 14.0 0.00 0.00 0.00 63 1011.3
20260504214048 79 202 5.0 13.0 0.00 0.00 0.00 62 1011.2
20260504213547 78 173 5.0 14.0 0.00 0.00 0.00 63 1011.4
20260504213108 78 212 6.0 14.0 0.00 0.00 0.00 63 1011.3
20260504212548 78 147 7.0 14.0 0.00 0.00 0.00 63 1011.4
20260504212046 79 157 6.0 15.0 0.00 0.00 0.00 62 1011.4
20260504211549 78 159 6.0 15.0 0.00 0.00 0.00 62 1011.6
20260504211048 79 171 5.0 11.0 0.00 0.00 0.00 61 1011.6
20260504210549 79 180 6.0 16.0 0.00 0.00 0.00 62 1011.6
20260504210059 79 179 8.0 17.0 0.00 0.00 0.00 61 1011.8
20260504205547 81 149 6.0 17.0 0.00 0.00 0.00 60 1011.9
20260504205048 80 202 7.0 16.0 0.00 0.00 0.00 60 1012.0
20260504204601 80 232 5.0 15.0 0.00 0.00 0.00 61 1012.0
20260504204049 80 195 5.0 15.0 0.00 0.00 0.00 60 1011.9
20260504203547 80 186 7.0 15.0 0.00 0.00 0.00 60 1012.0
20260504203051 81 125 6.0 10.0 0.00 0.00 0.00 58 1012.2
20260504202548 81 133 5.0 17.0 0.00 0.00 0.00 58 1012.3
20260504202048 81 188 7.0 17.0 0.00 0.00 0.00 58 1012.4
20260504201551 81 155 6.0 13.0 0.00 0.00 0.00 59 1012.5
20260504201047 81 221 7.0 15.0 0.00 0.00 0.00 57 1012.5
20260504200548 82 183 6.0 15.0 0.00 0.00 0.00 59 1012.5
20260504200053 81 180 7.0 15.0 0.00 0.00 0.00 58 1012.6
20260504195547 81 161 7.0 16.0 0.00 0.00 0.00 59 1012.6
20260504195048 80 152 6.0 16.0 0.00 0.00 0.00 61 1012.8
20260504194547 81 146 4.0 14.0 0.00 0.00 0.00 60 1012.8
20260504194047 80 191 6.0 14.0 0.00 0.00 0.00 58 1012.8
20260504193547 80 155 6.0 18.0 0.00 0.00 0.00 59 1012.9
20260504193102 80 158 7.0 18.0 0.00 0.00 0.00 58 1013.0
20260504192548 81 132 4.0 15.0 0.00 0.00 0.00 61 1012.9
20260504192050 80 156 3.0 10.0 0.00 0.00 0.00 61 1013.1
20260504191556 80 190 5.0 14.0 0.00 0.00 0.00 61 1013.2
20260504191047 80 236 6.0 14.0 0.00 0.00 0.00 63 1013.3
20260504190547 79 181 5.0 11.0 0.00 0.00 0.00 60 1013.3
20260504190108 79 182 5.0 13.0 0.00 0.00 0.00 61 1013.4
20260504185547 79 176 5.0 13.0 0.00 0.00 0.00 62 1013.4
20260504185048 78 144 7.0 13.0 0.00 0.00 0.00 61 1013.6
20260504184556 77 160 6.0 15.0 0.00 0.00 0.00 63 1013.6
20260504184048 77 213 6.0 15.0 0.00 0.00 0.00 63 1013.6
20260504183545 78 173 5.0 13.0 0.00 0.00 0.00 62 1013.8
20260504183100 78 180 7.0 13.0 0.00 0.00 0.00 63 1013.9
20260504182547 77 146 6.0 13.0 0.00 0.00 0.00 65 1013.9
20260504182048 77 184 5.0 12.0 0.00 0.00 0.00 65 1014.0
20260504181550 77 194 6.0 15.0 0.00 0.00 0.00 65 1014.0
20260504181048 77 163 7.0 15.0 0.00 0.00 0.00 64 1014.0
20260504180548 78 182 7.0 15.0 0.00 0.00 0.00 64 1014.1
20260504180130 77 198 6.0 18.0 0.00 0.00 0.00 62 1014.0
20260504175547 77 170 6.0 18.0 0.00 0.00 0.00 63 1014.1
20260504175047 77 201 8.0 18.0 0.00 0.00 0.00 65 1014.3
20260504174551 77 193 7.0 14.0 0.00 0.00 0.00 64 1014.5
20260504174047 75 143 8.0 14.0 0.00 0.00 0.00 67 1014.4
20260504173547 75 171 6.0 15.0 0.00 0.00 0.00 67 1014.5
20260504173057 75 177 6.0 15.0 0.00 0.00 0.00 66 1014.6
20260504172550 76 199 8.0 15.0 0.00 0.00 0.00 66 1014.6
20260504172051 75 156 7.0 15.0 0.00 0.00 0.00 68 1014.6
20260504171557 75 173 6.0 15.0 0.00 0.00 0.00 67 1014.9
20260504171052 75 176 5.0 11.0 0.00 0.00 0.00 68 1015.1
20260504170551 74 190 6.0 11.0 0.00 0.00 0.00 71 1015.3
20260504151050 68 190 5.0 13.0 0.00 0.00 0.00 80 1015.7
20260504150550 67 159 5.0 14.0 0.00 0.00 0.00 80 1015.7
20260504141047 64 163 3.0 7.0 0.00 0.00 0.00 82 1015.7
20260504140547 64 237 4.0 8.0 0.00 0.00 0.00 82 1015.8
20260504130547 61 146 2.0 4.0 0.00 0.00 0.00 85 1015.8
20260504120103 59 151 2.0 5.0 0.00 0.00 0.00 86 1015.5
20260504110547 59 155 1.0 5.0 0.00 0.00 0.00 85 1015.5
20260504100550 59 150 1.0 5.0 0.00 0.00 0.00 85 1015.7
20260504081553 61 169 2.0 10.0 0.00 0.00 0.00 81 1016.2
20260504081050 61 175 3.0 10.0 0.00 0.00 0.00 80 1016.2
20260504080550 61 204 2.0 7.0 0.00 0.00 0.00 80 1016.3